Back to catalog

CZ-4 DEB

AlivePO
NORAD 26220·DEBRIS·🇨🇳 China

Launched Oct 14, 1999 from Taiyuan Satellite Launch Center

Loading…

Next Passes (next 24 hours)

TLE

FreshSource: Space-Track

Epoch: Sep 14, 2026, 08:29 UTC

1 26220U 99057DJ  26257.35415383  .00000509  00000-0  76662-4 0  9991
2 26220  98.6627  22.4014 0068364  14.8557   6.3150 14.77923879423249

Track CZ-4 DEB in real time with AllMySat

Download on the App Store